Osceola, IA

6:33 PM CDT on September 29, 2016 (GMT -0500)
Osceola Municipal

Weather History for KI75 - April, 2014

Change the Weather History Date:

Monday, April 21, 2014

  Actual Average (KLWD) Record (KLWD)
Temperature  
Mean Temperature 62 °F 53 °F  
Max Temperature 72 °F 64 °F 87 °F (1980)
Min Temperature 50 °F 43 °F 25 °F (1966)
Degree Days  
Heating Degree Days 2 12  
Month to date heating degree days 312  
Since 1 July heating degree days 5801  
Cooling Degree Days 0 0  
Month to date cooling degree days 0  
Year to date cooling degree days 1  
Growing Degree Days 12 (Base 50)    
Moisture  
Dew Point 49 °F    
Average Humidity 65    
Maximum Humidity 91    
Minimum Humidity 21    
Precipitation  
Precipitation 0.09 in 0.13 in 1.19 in (1984)
Month to date precipitation 2.30  
Sea Level Pressure  
Sea Level Pressure 29.97 in    
Wind  
Wind Speed 8 mph (WSW)    
Max Wind Speed 24 mph    
Max Gust Speed 30 mph    
Visibility 10 miles    
Events Rain    
T = Trace of Precipitation, MM = Missing Value Source: NWS Daily Summary

Daily Weather History Graph

Daily Weather History Graph

Search for Another Location

Airport or City:

Trip Planner

Search our weather history database for the weather conditions in past years. The results will help you decide how hot, cold, wet, or windy it might be!

Date:

Astronomy

Apr. 21, 2014 Rise Set
Actual Time 6:26 AM CDT 8:01 PM CDT
Civil Twilight 5:57 AM CDT 8:30 PM CDT
Nautical Twilight 5:22 AM CDT 9:05 PM CDT
Astronomical Twilight 4:45 AM CDT 9:42 PM CDT
Moon 1:32 AM CDT (4/21) 11:53 AM CDT (4/21)
Length of Visible Light 14h 32m
Length of Day
13h 34m
Waning Gibbous, 57% of the Moon is Illuminated
Apr 21
Waning Gibbous
Apr 22
Last Quarter
Apr 29
New
May 6
First Quarter
May 14
Full

Hourly Weather History & Observations

Time (CDT) Temp. Dew Point Humidity Pressure Visibility Wind Dir Wind Speed Gust Speed Precip Events Conditions
12:15 AM 61.3 °F 51.3 °F 69% 29.98 in 10.0 mi SSW 4.6 mph - N/A   Clear
12:35 AM 60.4 °F 51.4 °F 72% 29.98 in 10.0 mi SSW 5.8 mph - N/A   Clear
12:55 AM 59.2 °F 51.1 °F 74% 29.98 in 10.0 mi SSW 5.8 mph - N/A   Clear
1:15 AM 59.4 °F 51.6 °F 76% 29.98 in 10.0 mi SSW 5.8 mph - N/A   Mostly Cloudy
1:35 AM 60.3 °F 52.0 °F 74% 29.99 in 10.0 mi SSW 5.8 mph - N/A   Overcast
1:55 AM 60.8 °F 52.2 °F 73% 29.98 in 10.0 mi South 3.5 mph - N/A   Overcast
2:15 AM 60.3 °F 52.0 °F 74% 29.98 in 10.0 mi SSW 4.6 mph - N/A   Overcast
2:35 AM 60.1 °F 52.2 °F 75% 29.97 in 10.0 mi South 5.8 mph - N/A   Overcast
2:55 AM 59.9 °F 51.8 °F 75% 29.97 in 10.0 mi South 4.6 mph - N/A   Mostly Cloudy
3:15 AM 59.5 °F 52.0 °F 76% 29.96 in 10.0 mi SSW 4.6 mph - N/A   Mostly Cloudy
3:35 AM 59.5 °F 52.7 °F 78% 29.96 in 10.0 mi SSW 4.6 mph - N/A   Overcast
3:55 AM 60.6 °F 52.9 °F 76% 29.96 in 10.0 mi SSW 5.8 mph - N/A   Overcast
4:15 AM 61.3 °F 53.1 °F 74% 29.96 in 10.0 mi South 5.8 mph - N/A   Overcast
4:35 AM 61.3 °F 53.8 °F 76% 29.96 in 10.0 mi South 5.8 mph - N/A   Overcast
4:55 AM 59.9 °F 54.5 °F 82% 29.95 in 10.0 mi SE 5.8 mph - N/A   Drizzle
5:15 AM 59.2 °F 55.4 °F 87% 29.94 in 10.0 mi SSE 6.9 mph - N/A Rain Light Rain
5:35 AM 59.2 °F 55.6 °F 88% 29.95 in 10.0 mi South 6.9 mph - 0.01 in Rain Light Rain
5:55 AM 59.0 °F 55.4 °F 88% 29.95 in 10.0 mi South 4.6 mph - 0.01 in Rain Light Rain
6:15 AM 59.2 °F 55.4 °F 87% 29.94 in 10.0 mi South 5.8 mph - 0.01 in   Light Drizzle
6:35 AM 59.0 °F 55.0 °F 87% 29.94 in 10.0 mi South 5.8 mph - 0.01 in   Overcast
6:55 AM 58.8 °F 55.2 °F 88% 29.95 in 10.0 mi South 6.9 mph - 0.01 in   Overcast
7:15 AM 59.0 °F 55.4 °F 88% 29.95 in 7.0 mi SSW 9.2 mph - N/A   Overcast
7:35 AM 59.2 °F 55.6 °F 88% 29.95 in 10.0 mi South 8.1 mph - 0.01 in   Overcast
7:55 AM 59.0 °F 55.6 °F 88% 29.96 in 7.0 mi South 5.8 mph - 0.01 in   Overcast
8:15 AM 59.4 °F 56.3 °F 90% 29.96 in 7.0 mi South 4.6 mph - N/A   Overcast
8:35 AM 59.9 °F 56.3 °F 88% 29.96 in 7.0 mi South 5.8 mph - N/A Rain Light Rain
8:55 AM 60.3 °F 56.8 °F 88% 29.97 in 7.0 mi SSW 8.1 mph - N/A   Mostly Cloudy
9:15 AM 59.9 °F 56.7 °F 89% 29.96 in 7.0 mi South 6.9 mph - N/A   Mostly Cloudy
9:35 AM 59.9 °F 56.8 °F 90% 29.96 in 7.0 mi SSW 8.1 mph - N/A   Overcast
9:55 AM 60.8 °F 57.6 °F 89% 29.96 in 7.0 mi SSW 8.1 mph - N/A   Overcast
10:15 AM 59.9 °F 56.7 °F 89% 29.97 in 10.0 mi SSW 6.9 mph - N/A Rain Light Rain
10:35 AM 59.5 °F 56.7 °F 90% 29.96 in 7.0 mi South 8.1 mph - 0.06 in Rain Light Rain
10:55 AM 59.9 °F 57.2 °F 91% 29.95 in 10.0 mi South 8.1 mph - 0.06 in   Overcast
11:15 AM 60.3 °F 57.2 °F 90% 29.96 in 10.0 mi SSW 9.2 mph - N/A   Overcast
11:35 AM 60.8 °F 57.4 °F 88% 29.98 in 10.0 mi SW 5.8 mph - N/A   Overcast
11:55 AM 62.2 °F 58.3 °F 87% 29.97 in 10.0 mi SW 8.1 mph - N/A   Mostly Cloudy
12:15 PM 62.2 °F 58.3 °F 87% 29.98 in 10.0 mi WSW 6.9 mph - N/A   Overcast
12:35 PM 64.4 °F 58.8 °F 82% 29.97 in 10.0 mi WSW 10.4 mph - N/A   Overcast
12:55 PM 64.9 °F 59.0 °F 81% 29.97 in 10.0 mi West 8.1 mph - N/A   Mostly Cloudy
1:15 PM 66.9 °F 57.9 °F 73% 29.95 in 10.0 mi WNW 9.2 mph - N/A   Mostly Cloudy
1:35 PM 69.4 °F 56.5 °F 63% 29.95 in 10.0 mi WNW 10.4 mph - N/A   Scattered Clouds
1:55 PM 70.3 °F 57.0 °F 63% 29.95 in 10.0 mi WNW 9.2 mph - N/A   Scattered Clouds
2:15 PM 70.0 °F 56.5 °F 62% 29.94 in 10.0 mi NW 11.5 mph 16.1 mph N/A   Mostly Cloudy
2:35 PM 71.8 °F 55.0 °F 55% 29.94 in 10.0 mi NW 9.2 mph - N/A   Mostly Cloudy
2:55 PM 72.3 °F 53.8 °F 52% 29.93 in 10.0 mi West 6.9 mph 16.1 mph N/A   Scattered Clouds
3:15 PM 69.3 °F 55.6 °F 62% 29.93 in 10.0 mi NNW 18.4 mph 27.6 mph N/A   Overcast
3:35 PM 70.3 °F 55.0 °F 58% 29.93 in 10.0 mi NW 23.0 mph 27.6 mph N/A   Mostly Cloudy
3:55 PM 69.3 °F 54.0 °F 58% 29.94 in 10.0 mi NW 21.9 mph 26.5 mph N/A   Mostly Cloudy
4:15 PM 70.5 °F 50.0 °F 48% 29.94 in 10.0 mi NNW 20.7 mph 28.8 mph N/A   Scattered Clouds
4:35 PM 70.3 °F 45.0 °F 40% 29.94 in 10.0 mi NNW 20.7 mph 27.6 mph N/A   Scattered Clouds
4:55 PM 71.4 °F 43.2 °F 36% 29.94 in 10.0 mi NW 21.9 mph 27.6 mph N/A   Clear
5:15 PM 70.7 °F 40.1 °F 33% 29.94 in 10.0 mi NW 21.9 mph - N/A   Clear
5:35 PM 70.9 °F 34.7 °F 26% 29.95 in 10.0 mi NNW 24.2 mph 29.9 mph N/A   Clear
5:55 PM 71.1 °F 33.4 °F 25% 29.95 in 10.0 mi NNW 16.1 mph 21.9 mph N/A   Clear
6:15 PM 69.8 °F 31.3 °F 24% 29.95 in 10.0 mi NNW 12.7 mph 24.2 mph N/A   Clear
6:35 PM 69.8 °F 28.8 °F 22% 29.95 in 10.0 mi NNW 21.9 mph 26.5 mph N/A   Clear
6:55 PM 69.1 °F 27.7 °F 21% 29.95 in 10.0 mi North 16.1 mph 24.2 mph N/A   Clear
7:15 PM 68.0 °F 29.1 °F 23% 29.95 in 10.0 mi North 15.0 mph 19.6 mph N/A   Clear
7:35 PM 66.4 °F 30.2 °F 26% 29.96 in 10.0 mi NNW 13.8 mph 18.4 mph N/A   Clear
7:55 PM 64.8 °F 32.0 °F 29% 29.97 in 10.0 mi NNW 12.7 mph - N/A   Clear
8:15 PM 62.8 °F 32.7 °F 32% 29.98 in 10.0 mi NNW 11.5 mph - N/A   Clear
8:35 PM 61.3 °F 33.8 °F 36% 29.99 in 10.0 mi NNW 8.1 mph - N/A   Clear
8:55 PM 60.1 °F 34.9 °F 39% 30.00 in 10.0 mi NNW 9.2 mph - N/A   Clear
9:15 PM 58.3 °F 35.6 °F 43% 30.01 in 10.0 mi NNW 10.4 mph - N/A   Clear
9:35 PM 58.3 °F 36.5 °F 44% 30.02 in 10.0 mi North 9.2 mph - N/A   Clear
9:55 PM 57.7 °F 37.4 °F 47% 30.03 in 10.0 mi NNW 9.2 mph - N/A   Clear
10:15 PM 55.0 °F 37.6 °F 52% 30.03 in 10.0 mi NNW 11.5 mph - N/A   Clear
10:35 PM 55.9 °F 36.0 °F 47% 30.04 in 10.0 mi North 12.7 mph - N/A   Clear
10:55 PM 55.2 °F 35.2 °F 47% 30.04 in 10.0 mi NNW 12.7 mph 20.7 mph N/A   Clear
11:15 PM 53.8 °F 35.2 °F 50% 30.05 in 10.0 mi NNW 13.8 mph - N/A   Clear
11:55 PM 50.9 °F 34.9 °F 54% 30.07 in 10.0 mi NNW 10.4 mph - N/A   Clear